When you browse on this site, cookies collect data to enhance your experience and personalize the content and advertising you see.
Visit our Privacy Policy to learn more. By continuing to use the site, you agree to this use of cookies and data.
  • Em Portugal
  • Lista de países
  • Para 7 dias
  • Temperatura da água
  • Mapa do tempo
  • Widgets de tempo
  • user-avatar
    Iniciar Sessão

    Previsão horária em Linares

    Hoje, 19 Janeiro, Domingo

    Tempo Temperatura Precipitação Vento Pressão Humidade
    00:00 +11°C° 0.2 mm 3 m/s 728 mmHg 97%
    01:00 +10°C° 0.2 mm 3 m/s 728 mmHg 96%
    02:00 +9°C° 0.2 mm 3 m/s 728 mmHg 95%
    03:00 +8°C° 0.2 mm 3 m/s 727 mmHg 93%
    04:00 +7°C° 0.3 mm 3 m/s 727 mmHg 93%
    05:00 +5°C° 0.3 mm 3 m/s 727 mmHg 93%
    06:00 +5°C° 0.3 mm 3 m/s 727 mmHg 93%
    07:00 +6°C° 0 mm 2 m/s 727 mmHg 90%
    08:00 +7°C° 0 mm 2 m/s 727 mmHg 87%
    09:00 +7°C° 0 mm 2 m/s 727 mmHg 84%
    10:00 +8°C° 0.2 mm 3 m/s 727 mmHg 81%
    11:00 +7°C° 0.2 mm 4 m/s 727 mmHg 77%
    12:00 +8°C° 0.2 mm 4 m/s 727 mmHg 73%
    13:00 +8°C° 0.2 mm 5 m/s 727 mmHg 69%
    14:00 +8°C° 0.2 mm 5 m/s 726 mmHg 65%
    15:00 +9°C° 0.2 mm 6 m/s 726 mmHg 61%
    16:00 +7°C° 0.1 mm 6 m/s 726 mmHg 68%
    17:00 +5°C° 0.1 mm 6 m/s 726 mmHg 75%
    18:00 +4°C° 0.1 mm 7 m/s 726 mmHg 82%
    19:00 +4°C° 0.1 mm 6 m/s 726 mmHg 78%
    20:00 +3°C° 0.1 mm 6 m/s 726 mmHg 74%
    21:00 +2°C° 0.1 mm 6 m/s 726 mmHg 71%
    22:00 +2°C° 0 mm 5 m/s 726 mmHg 69%
    23:00 +2°C° 0 mm 5 m/s 726 mmHg 67%

    Amanhã, 20 Janeiro, Segunda-feira

    Tempo Temperatura Precipitação Vento Pressão Humidade
    00:00 +1°C° 0 mm 4 m/s 727 mmHg 65%
    01:00 +1°C° 0 mm 5 m/s 726 mmHg 67%
    02:00 +1°C° 0 mm 5 m/s 726 mmHg 69%
    03:00 +1°C° 0 mm 5 m/s 725 mmHg 71%
    04:00 +1°C° 0.3 mm 6 m/s 725 mmHg 75%
    05:00 +1°C° 0.3 mm 6 m/s 725 mmHg 79%
    06:00 0°C° 0.3 mm 7 m/s 725 mmHg 83%
    07:00 0°C° 0.1 mm 7 m/s 725 mmHg 83%
    08:00 +2°C° 0.1 mm 7 m/s 724 mmHg 82%
    09:00 +2°C° 0.1 mm 8 m/s 724 mmHg 82%
    10:00 +4°C° 0.1 mm 8 m/s 724 mmHg 78%
    11:00 +5°C° 0.1 mm 9 m/s 724 mmHg 73%
    12:00 +6°C° 0.1 mm 10 m/s 724 mmHg 69%
    13:00 +6°C° 0.1 mm 9 m/s 724 mmHg 71%
    14:00 +6°C° 0.1 mm 9 m/s 724 mmHg 72%
    15:00 +6°C° 0.1 mm 9 m/s 723 mmHg 74%
    16:00 +5°C° 0.1 mm 7 m/s 723 mmHg 77%
    17:00 +4°C° 0.1 mm 6 m/s 724 mmHg 80%
    18:00 +5°C° 0.1 mm 4 m/s 724 mmHg 83%
    19:00 +5°C° 0.1 mm 4 m/s 724 mmHg 84%
    20:00 +5°C° 0.1 mm 4 m/s 724 mmHg 86%
    21:00 +4°C° 0.1 mm 4 m/s 724 mmHg 87%
    22:00 +4°C° 0 mm 4 m/s 724 mmHg 88%
    23:00 +4°C° 0 mm 3 m/s 724 mmHg 89%

    Depois de amanhã, 21 Janeiro, Terça-feira

    Tempo Temperatura Precipitação Vento Pressão Humidade
    00:00 +4°C° 0 mm 3 m/s 724 mmHg 91%
    01:00 +4°C° 0 mm 2 m/s 723 mmHg 91%
    02:00 +4°C° 0 mm 2 m/s 723 mmHg 92%
    03:00 +4°C° 0 mm 2 m/s 723 mmHg 92%
    04:00 +4°C° 0 mm 2 m/s 722 mmHg 92%
    05:00 +4°C° 0 mm 2 m/s 722 mmHg 92%
    06:00 +4°C° 0 mm 2 m/s 722 mmHg 92%
    07:00 +5°C° 0 mm 2 m/s 722 mmHg 89%
    08:00 +5°C° 0 mm 2 m/s 722 mmHg 86%
    09:00 +6°C° 0 mm 2 m/s 722 mmHg 84%
    10:00 +7°C° 0.4 mm 2 m/s 722 mmHg 84%
    11:00 +7°C° 0.4 mm 3 m/s 722 mmHg 85%
    12:00 +7°C° 0.4 mm 3 m/s 722 mmHg 86%
    13:00 +8°C° 0.1 mm 3 m/s 721 mmHg 83%
    14:00 +8°C° 0.1 mm 2 m/s 721 mmHg 80%
    15:00 +9°C° 0.1 mm 2 m/s 720 mmHg 77%
    16:00 +8°C° 1.4 mm 2 m/s 720 mmHg 83%
    17:00 +7°C° 1.4 mm 2 m/s 720 mmHg 89%
    18:00 +7°C° 1.4 mm 2 m/s 720 mmHg 94%
    19:00 +7°C° 1.6 mm 2 m/s 720 mmHg 94%
    20:00 +6°C° 1.6 mm 2 m/s 721 mmHg 94%
    21:00 +5°C° 1.6 mm 3 m/s 721 mmHg 94%
    22:00 +6°C° 0.8 mm 2 m/s 721 mmHg 93%
    23:00 +6°C° 0.8 mm 2 m/s 722 mmHg 91%

    22 Janeiro, Quarta-feira

    Tempo Temperatura Precipitação Vento Pressão Humidade
    00:00 +6°C° 0.8 mm 2 m/s 722 mmHg 90%
    01:00 +6°C° 0.1 mm 2 m/s 722 mmHg 90%
    02:00 +6°C° 0.1 mm 2 m/s 723 mmHg 90%
    03:00 +6°C° 0.1 mm 2 m/s 723 mmHg 90%
    04:00 +6°C° 0 mm 2 m/s 723 mmHg 89%
    05:00 +5°C° 0 mm 2 m/s 723 mmHg 89%
    06:00 +5°C° 0 mm 2 m/s 723 mmHg 89%
    07:00 +6°C° 0 mm 2 m/s 724 mmHg 87%
    08:00 +6°C° 0 mm 2 m/s 724 mmHg 84%
    09:00 +7°C° 0 mm 2 m/s 725 mmHg 82%
    10:00 +8°C° 0 mm 2 m/s 725 mmHg 75%
    11:00 +9°C° 0 mm 2 m/s 725 mmHg 68%
    12:00 +11°C° 0 mm 3 m/s 725 mmHg 61%
    13:00 +11°C° 0 mm 3 m/s 725 mmHg 59%
    14:00 +13°C° 0 mm 2 m/s 725 mmHg 56%
    15:00 +13°C° 0 mm 2 m/s 724 mmHg 54%
    16:00 +12°C° 0 mm 2 m/s 724 mmHg 60%
    17:00 +9°C° 0 mm 2 m/s 725 mmHg 66%
    18:00 +8°C° 0 mm 2 m/s 725 mmHg 72%
    19:00 +7°C° 0 mm 2 m/s 725 mmHg 75%
    20:00 +7°C° 0 mm 2 m/s 725 mmHg 78%
    21:00 +6°C° 0 mm 2 m/s 726 mmHg 80%
    22:00 +6°C° 0 mm 2 m/s 726 mmHg 81%
    23:00 +5°C° 0 mm 2 m/s 726 mmHg 82%

    23 Janeiro, Quinta-feira

    Tempo Temperatura Precipitação Vento Pressão Humidade
    00:00 +5°C° 0 mm 2 m/s 726 mmHg 82%
    01:00 +5°C° 0 mm 2 m/s 725 mmHg 82%
    02:00 +5°C° 0 mm 2 m/s 725 mmHg 82%
    03:00 +5°C° 0 mm 2 m/s 725 mmHg 82%
    04:00 +5°C° 0 mm 2 m/s 725 mmHg 81%
    05:00 +5°C° 0 mm 2 m/s 725 mmHg 80%
    06:00 +4°C° 0 mm 3 m/s 725 mmHg 79%
    07:00 +4°C° 0 mm 3 m/s 725 mmHg 75%
    08:00 +5°C° 0 mm 3 m/s 725 mmHg 72%
    09:00 +7°C° 0 mm 3 m/s 726 mmHg 69%
    10:00 +8°C° 0.1 mm 2 m/s 726 mmHg 65%
    11:00 +10°C° 0.1 mm 2 m/s 726 mmHg 61%
    12:00 +12°C° 0.1 mm 2 m/s 726 mmHg 57%
    13:00 +12°C° 0.2 mm 2 m/s 726 mmHg 60%
    14:00 +12°C° 0.2 mm 2 m/s 726 mmHg 63%
    15:00 +12°C° 0.2 mm 2 m/s 725 mmHg 66%
    16:00 +10°C° 0 mm 2 m/s 725 mmHg 70%
    17:00 +9°C° 0 mm 2 m/s 726 mmHg 75%
    18:00 +8°C° 0 mm 2 m/s 726 mmHg 79%
    19:00 +8°C° 0.2 mm 2 m/s 726 mmHg 81%
    20:00 +8°C° 0.2 mm 2 m/s 726 mmHg 83%
    21:00 +8°C° 0.2 mm 2 m/s 727 mmHg 85%
    22:00 +9°C° 0.3 mm 1 m/s 727 mmHg 85%
    23:00 +9°C° 0.3 mm 1 m/s 727 mmHg 86%

    24 Janeiro, Sexta-feira

    Tempo Temperatura Precipitação Vento Pressão Humidade
    00:00 +9°C° 0.3 mm 1 m/s 727 mmHg 87%
    01:00 +7°C° 0.4 mm 2 m/s 727 mmHg 87%
    02:00 +7°C° 0.4 mm 2 m/s 726 mmHg 88%
    03:00 +7°C° 0.4 mm 2 m/s 726 mmHg 89%
    04:00 +7°C° 0 mm 2 m/s 726 mmHg 88%
    05:00 +6°C° 0 mm 2 m/s 726 mmHg 87%
    06:00 +6°C° 0 mm 2 m/s 726 mmHg 85%
    07:00 +7°C° 0 mm 2 m/s 726 mmHg 82%
    08:00 +8°C° 0 mm 1 m/s 727 mmHg 79%
    09:00 +9°C° 0 mm 1 m/s 727 mmHg 76%
    10:00 +9°C° 0.3 mm 1 m/s 727 mmHg 77%
    11:00 +10°C° 0.3 mm 1 m/s 727 mmHg 78%
    12:00 +10°C° 0.3 mm 1 m/s 727 mmHg 79%
    13:00 +10°C° 0.3 mm 1 m/s 727 mmHg 80%
    14:00 +10°C° 0.3 mm 1 m/s 727 mmHg 81%
    15:00 +10°C° 0.3 mm 1 m/s 726 mmHg 82%
    16:00 +10°C° 0.1 mm 1 m/s 727 mmHg 84%
    17:00 +9°C° 0.1 mm 1 m/s 727 mmHg 86%
    18:00 +9°C° 0.1 mm 1 m/s 727 mmHg 88%
    19:00 +9°C° 0 mm 1 m/s 727 mmHg 88%
    20:00 +8°C° 0 mm 1 m/s 728 mmHg 88%
    21:00 +8°C° 0 mm 1 m/s 728 mmHg 88%
    22:00 +8°C° 0 mm 1 m/s 728 mmHg 88%
    23:00 +8°C° 0 mm 1 m/s 728 mmHg 88%
    Mostrar mais